[[{"header":{"parameterUnit":"m.s-1","parameterCategory":1,"la1":30.2991,"la2":30.254,"lo1":-89.0895,"lo2":-89.0444,"dy":0.0017,"dx":0.0017,"nx":28,"ny":28,"refTime":"2025-12-29T09:00:00:Z","depth":0,"parameterNumber":2,"parameterNumberName":"U-component_of_WINDS"},"data":[0,0,0,0,0,0,0,0,0,0,0,0,0,0,0,0,0,0,0,0,0,0,0,0,0,0,0,0,0,0,0,0,0,0,0,0,0,0,0,0,0,0,0,0,0,0,0,0,0,0,0,0,0,0,0,0,0,0,1.1078,1.1079,0,1.1144,1.1145,1.1146,1.114,1.1139,1.1138,1.1137,1.1205,1.1208,1.1211,0,0,0,0,0,0,0,0,0,0,0,0,0,1.0948,1.0951,1.1078,1.1079,1.108,1.1144,1.1145,1.1146,1.1141,1.1139,1.1138,1.1137,1.1204,1.1208,1.1211,0,0,0,0,0,0,0,0,0,0,0,0,0,1.1009,1.0952,1.1078,1.1085,1.1086,1.1144,1.1145,1.1146,1.1141,1.1139,1.1138,1.1136,1.1203,1.1207,1.1211,1.1266,0,0,1.1224,1.1226,0,0,0,0,0,0,0,0,1.1005,1.1013,1.1083,1.1085,1.1086,1.1132,1.1124,1.1186,1.1141,1.112,1.1137,1.1136,1.1182,1.1188,1.1204,1.1269,1.1272,1.1224,1.1227,1.1228,1.123,0,0,0,0,0,0,0,1.1001,1.101,1.1104,1.1084,1.1086,1.1085,1.1092,1.1136,1.1159,1.1122,1.1122,1.1129,1.1183,1.12,1.1205,1.1273,1.1224,1.1228,1.123,1.1232,1.1387,1.1389,0,0,0,0,0,0,1.0995,1.1007,1.1102,1.1106,1.1041,1.1088,1.1096,1.1119,1.1158,1.1163,1.1131,1.1129,1.1193,1.12,1.1207,1.1274,1.1228,1.1232,1.1235,1.1385,1.1387,1.1389,0,0,0,0,0,0,1.0992,1.1004,1.11,1.1057,1.1069,1.1092,1.1118,1.1121,1.1138,1.1165,1.1169,1.1144,1.1192,1.1202,1.1252,1.1277,1.1234,1.1238,1.1383,1.1386,1.1388,1.1408,0,0,0,0,0,0,1.0989,1.1003,1.1024,1.1057,1.1071,1.1143,1.112,1.1124,1.1145,1.1143,1.1178,1.1182,1.1192,1.1245,1.1256,1.1281,1.1241,1.1381,1.1385,1.1388,1.1405,1.1411,1.1416,0,0,0,0,0,1.0984,1.1027,1.1025,1.1037,1.1098,1.1144,1.1152,1.1162,1.1147,1.1169,1.1186,1.1181,1.1272,1.1251,1.1262,1.1289,1.138,1.1384,1.1387,1.1403,1.141,1.1416,0,0,0,0,0,0,1.0997,1.1032,1.103,1.1085,1.1111,1.1143,1.1171,1.1169,1.1201,1.1198,1.1209,1.1217,1.1267,1.1283,1.1259,1.1344,1.1324,1.133,1.1332,1.1339,1.1344,1.1339,1.1244,0,0,0,0,0,1.1006,1.104,1.1069,1.1115,1.1128,1.1147,1.1167,1.1173,1.1201,1.1212,1.1233,1.1261,1.1295,1.1318,1.1351,1.1408,1.1415,1.1432,1.1437,1.1441,1.1447,1.1477,1.1485,1.1402,1.1402,1.1402,0,0,1.1025,1.1048,1.1069,1.1118,1.1139,1.1174,1.1157,1.1195,1.1221,1.1218,1.1266,1.1282,1.1314,1.1367,1.1392,1.1382,1.1471,1.1446,1.1449,1.1452,1.1482,1.149,1.1497,1.1404,1.1404,1.1403,0,0,1.1078,1.1099,1.114,1.1161,1.1194,1.1206,1.1215,1.1247,1.1258,1.1306,1.1305,1.1336,1.1396,1.1418,1.1437,1.1498,1.1495,1.1509,1.1536,1.1566,1.1573,1.1579,1.16,1.1608,1.1514,1.1514,1.1514,0,1.1098,1.1151,1.1161,1.1199,1.122,1.1219,1.126,1.128,1.1322,1.1336,1.1325,1.14,1.1421,1.1479,1.1494,1.1509,1.1521,1.1505,1.1571,1.1577,1.1583,1.1603,1.1612,1.1515,1.1515,1.1515,1.1515,0,1.1174,1.1211,1.124,1.128,1.1304,1.1344,1.1359,1.1382,1.1385,1.1399,1.1448,1.1473,1.1511,1.1525,1.1529,1.1584,1.1577,1.1568,1.1548,1.1592,1.1612,1.162,1.1517,1.1517,1.1516,1.1516,0,0,1.1237,1.1282,1.1292,1.131,1.1345,1.1374,1.1413,1.145,1.147,1.1499,1.1532,1.1582,1.1574,1.1596,1.1602,1.1628,1.1674,1.1616,1.1617,1.1626,1.1737,1.1743,1.1752,1.1673,1.1674,1.1675,1.1734,0,1.1294,1.1363,1.1373,1.1434,1.1469,1.1467,1.1502,1.1527,1.154,1.1571,1.1586,1.1621,1.1608,1.1621,1.1646,1.1663,1.1697,1.1659,1.1704,1.1705,1.1696,1.1763,1.177,1.1824,1.1742,1.1743,1.1744,0,1.1369,1.14,1.1465,1.1495,1.151,1.154,1.1575,1.1605,1.1633,1.1641,1.1665,1.1668,1.1708,1.1686,1.1742,1.1716,1.1735,1.1745,1.1748,1.1753,1.1727,1.1769,1.1842,1.185,1.1756,1.1755,1.1754,0,1.1409,1.1466,1.1512,1.1528,1.1564,1.1586,1.1602,1.1629,1.1651,1.1681,1.1695,1.173,1.1749,1.1776,1.1787,1.177,1.1843,1.1821,1.185,1.185,1.1866,1.1865,1.1942,1.1878,1.1878,1.1877,1.1877,0,1.1471,1.1511,1.1531,1.1559,1.1603,1.1614,1.1657,1.1673,1.1697,1.1728,1.1729,1.1759,1.1772,1.1804,1.1813,1.1858,1.1866,1.1874,1.1876,1.1874,1.1873,1.1886,1.1883,1.188,1.1879,1.1879,1.1878,0,1.1523,1.1538,1.1588,1.1618,1.1627,1.1658,1.1684,1.1712,1.1725,1.1764,1.1774,1.1794,1.1831,1.1846,1.1891,1.1897,1.1949,1.1948,1.1939,1.194,1.1968,1.1965,1.2057,1.2069,1.1996,1.1997,1.1998,0,1.1562,1.1592,1.1626,1.1647,1.1664,1.1698,1.172,1.1731,1.1754,1.1788,1.1812,1.1848,1.1878,1.1938,1.1956,1.1991,1.1991,1.2021,1.1996,1.1993,1.1991,1.1989,1.1992,1.2025,1.2026,1.2027,1.2027,0,1.1629,1.1635,1.1666,1.1701,1.1727,1.1754,1.1781,1.1798,1.1813,1.1839,1.1877,1.19,1.1946,1.1983,1.2018,1.2035,1.2034,1.2035,1.2043,1.2041,1.2035,1.2039,1.1952,1.2032,1.2032,1.2032,1.2031,1.2031,1.1675,1.1702,1.173,1.1765,1.1786,1.1811,1.1839,1.1855,1.1887,1.1925,1.1929,1.197,1.1997,1.2045,1.2063,1.2095,1.2087,1.2099,1.2102,1.2105,1.2107,1.203,1.2101,1.2101,1.2101,1.2101,1.2101,0,1.1742,1.176,1.1792,1.183,1.1857,1.1854,1.1883,1.1906,1.1942,1.1968,1.1997,1.204,1.2076,1.2097,1.2132,1.2154,1.2154,1.2163,1.2161,1.2165,1.2112,1.2101,1.2162,1.2162,1.2162,1.2162,1.2162,1.2162,1.178,1.1826,1.1835,1.1891,1.1908,1.1948,1.1965,1.1988,1.2008,1.2057,1.2086,1.2099,1.2123,1.2161,1.2193,1.2198,1.2211,1.222,1.2225,1.2175,1.2169,1.2163,1.2153,1.2223,1.2223,1.2275,1.2276,1.2276]},{"header":{"parameterUnit":"m.s-1","parameterCategory":1,"la1":30.2991,"la2":30.254,"lo1":-89.0895,"lo2":-89.0444,"dy":0.0017,"dx":0.0017,"nx":28,"ny":28,"refTime":"2025-12-29T09:00:00:Z","depth":0,"parameterNumber":3,"parameterNumberName":"V-component_of_WINDS"},"data":[0,0,0,0,0,0,0,0,0,0,0,0,0,0,0,0,0,0,0,0,0,0,0,0,0,0,0,0,0,0,0,0,0,0,0,0,0,0,0,0,0,0,0,0,0,0,0,0,0,0,0,0,0,0,0,0,0,0,2.3529,2.3529,0,2.3583,2.3584,2.3584,2.356,2.3559,2.3557,2.3556,2.361,2.3613,2.3615,0,0,0,0,0,0,0,0,0,0,0,0,0,2.3401,2.3404,2.3529,2.3529,2.353,2.3583,2.3584,2.3584,2.356,2.3559,2.3557,2.3555,2.3609,2.3612,2.3616,0,0,0,0,0,0,0,0,0,0,0,0,0,2.3456,2.3405,2.3529,2.3524,2.3524,2.3583,2.3584,2.3585,2.3561,2.3558,2.3556,2.3555,2.3608,2.3612,2.3616,2.3681,0,0,2.3628,2.363,0,0,0,0,0,0,0,0,2.3453,2.3461,2.3524,2.3525,2.3525,2.3563,2.3559,2.3617,2.3561,2.3547,2.3556,2.3554,2.3596,2.3601,2.3615,2.3684,2.3686,2.3629,2.3631,2.3633,2.3634,0,0,0,0,0,0,0,2.3449,2.3458,2.355,2.3525,2.3526,2.3519,2.3524,2.357,2.3582,2.3548,2.3546,2.3553,2.3596,2.3612,2.3616,2.3687,2.3629,2.3632,2.3635,2.3636,2.3811,2.3813,0,0,0,0,0,0,2.3446,2.3455,2.3548,2.3552,2.3483,2.3523,2.3529,2.3553,2.3581,2.3584,2.3555,2.3552,2.3606,2.3612,2.3618,2.3696,2.3633,2.3637,2.3639,2.3809,2.3811,2.3814,0,0,0,0,0,0,2.3443,2.3454,2.3546,2.3503,2.3514,2.3527,2.3554,2.3555,2.3571,2.3587,2.3588,2.3569,2.3604,2.3613,2.3666,2.3698,2.3639,2.3642,2.3806,2.3809,2.3812,2.3853,0,0,0,0,0,0,2.344,2.3454,2.3479,2.3504,2.3517,2.3594,2.3556,2.3557,2.3578,2.3574,2.36,2.3603,2.3603,2.366,2.367,2.3702,2.3645,2.3803,2.3807,2.3811,2.3849,2.3858,2.3865,0,0,0,0,0,2.3435,2.3488,2.3481,2.3492,2.3549,2.3596,2.3603,2.3603,2.3581,2.3606,2.3616,2.3602,2.3693,2.3666,2.3676,2.3711,2.3801,2.3806,2.3811,2.3846,2.3856,2.3865,0,0,0,0,0,0,2.3467,2.3492,2.3483,2.3546,2.3569,2.3591,2.3624,2.3614,2.3643,2.3639,2.3637,2.3643,2.3698,2.3709,2.3679,2.3775,2.3743,2.3751,2.3766,2.3776,2.3784,2.378,2.3649,0,0,0,0,0,2.3481,2.3518,2.3537,2.3591,2.3602,2.3611,2.3631,2.3629,2.3653,2.3662,2.3676,2.3699,2.3732,2.3754,2.3786,2.385,2.3855,2.3879,2.3887,2.3893,2.39,2.3934,2.3945,2.383,2.383,2.383,0,0,2.3511,2.3529,2.3552,2.3597,2.3615,2.3652,2.3619,2.366,2.3687,2.3668,2.372,2.373,2.3755,2.3814,2.3841,2.3825,2.3933,2.39,2.3905,2.3908,2.3941,2.3952,2.3961,2.3833,2.3833,2.3832,0,0,2.3585,2.3603,2.3649,2.3667,2.3694,2.3699,2.371,2.3734,2.374,2.3792,2.3778,2.381,2.3868,2.3886,2.3903,2.3982,2.397,2.3992,2.4034,2.4067,2.4077,2.4085,2.4113,2.4124,2.3999,2.3999,2.3999,0,2.3619,2.3675,2.3674,2.3716,2.3736,2.372,2.3767,2.3784,2.3819,2.3833,2.3815,2.3887,2.3903,2.3966,2.3985,2.3999,2.4011,2.399,2.4075,2.4084,2.4091,2.4118,2.4129,2.4001,2.4001,2.4001,2.4001,0,2.3716,2.3755,2.3789,2.3824,2.3848,2.3892,2.3896,2.392,2.3915,2.3922,2.3974,2.3992,2.4027,2.4041,2.4037,2.4104,2.4093,2.4075,2.4044,2.4105,2.413,2.4141,2.4005,2.4004,2.4003,2.4003,0,0,2.3813,2.3846,2.3859,2.3874,2.3902,2.3932,2.3974,2.4009,2.4029,2.4053,2.4089,2.4138,2.4121,2.414,2.4138,2.4167,2.4229,2.4146,2.4146,2.4161,2.4303,2.4317,2.4329,2.4221,2.4222,2.4224,2.4301,0,2.3889,2.3965,2.3965,2.4034,2.407,2.4054,2.4091,2.4112,2.4119,2.4149,2.4156,2.4191,2.4167,2.4178,2.4206,2.4216,2.4258,2.421,2.4254,2.4255,2.4249,2.4343,2.4358,2.443,2.4311,2.4313,2.4314,0,2.3989,2.4018,2.4091,2.4113,2.4128,2.4161,2.4193,2.4222,2.4244,2.4247,2.4268,2.4261,2.4303,2.4269,2.4327,2.4295,2.4312,2.4319,2.4322,2.4327,2.4289,2.4351,2.4453,2.4464,2.433,2.4328,2.4327,0,2.4054,2.411,2.4161,2.4175,2.4201,2.4225,2.4237,2.4257,2.4278,2.4305,2.4318,2.4349,2.4366,2.439,2.4391,2.4366,2.445,2.4416,2.4453,2.4453,2.4473,2.4472,2.458,2.4482,2.4482,2.4482,2.4482,0,2.414,2.4186,2.419,2.4222,2.4272,2.427,2.432,2.4329,2.4347,2.438,2.4368,2.4398,2.4397,2.4428,2.4428,2.4477,2.4484,2.4488,2.4487,2.449,2.4489,2.4502,2.4497,2.4485,2.4484,2.4484,2.4483,0,2.4221,2.4226,2.4281,2.4301,2.4307,2.4344,2.4361,2.439,2.4395,2.4437,2.4446,2.4454,2.449,2.4493,2.4534,2.4534,2.4593,2.4586,2.4586,2.4585,2.4623,2.4619,2.4744,2.476,2.4651,2.4652,2.4653,0,2.4277,2.4312,2.4336,2.4357,2.437,2.4404,2.4425,2.4424,2.4446,2.4473,2.4499,2.4534,2.4561,2.4619,2.4628,2.4659,2.4654,2.4695,2.4659,2.466,2.4656,2.4654,2.4658,2.4703,2.4704,2.4705,2.4706,0,2.4375,2.4375,2.4406,2.4438,2.4463,2.4487,2.451,2.4528,2.4529,2.4554,2.4591,2.4612,2.4654,2.4688,2.4718,2.473,2.4718,2.4717,2.4728,2.4731,2.4729,2.4731,2.4606,2.4715,2.4714,2.4713,2.4713,2.4712,2.4445,2.4476,2.4497,2.4532,2.4549,2.457,2.4599,2.4607,2.4638,2.4672,2.4669,2.4709,2.4729,2.4769,2.4783,2.4814,2.48,2.4815,2.4819,2.4823,2.4827,2.4723,2.4819,2.4819,2.4818,2.4818,2.4818,0,2.4544,2.4556,2.4588,2.4621,2.4647,2.4634,2.4658,2.4681,2.4717,2.4737,2.4764,2.4806,2.4839,2.485,2.4882,2.4904,2.49,2.4913,2.4912,2.4915,2.4837,2.4826,2.4916,2.4916,2.4916,2.4916,2.4916,2.4916,2.4598,2.4648,2.4651,2.4709,2.4721,2.4761,2.4776,2.4796,2.4811,2.4859,2.4886,2.4893,2.4909,2.4942,2.4971,2.4973,2.4986,2.5002,2.5002,2.493,2.492,2.4911,2.49,2.5004,2.5004,2.5077,2.5077,2.5078]}]]